Location: Goettingen
(51.5300°N, 9.9433°E)
Time: 07:01:35
(UTC+02:00)

ISS - Pass Details

Date: 24 May 2018
Orbit: 402 x 407 km, 51.6° (Epoch: 21 May)

Event Time Altitude Azimuth Distance (km) Brightness Sun altitude
Rises 01:19:39 0° 278° (W) 2,321 0.1 -17.8°
Reaches altitude 10° 01:21:44 10° 278° (W) 1,460 -0.9 -17.7°
Maximum altitude 01:25:00 82° 191° (S) 412 -4.0 -17.7°
Enters shadow 01:27:54 13° 104° (ESE) 1,305 -1.4 -17.7°
